Tracking 35280 objects as of 7-Sep-2026
HD Live streaming from Space Station
objects crossing your sky now

ORBASTRO-TR5

Track ORBASTRO-TR5 now!
10-day predictions
ORBASTRO-TR5 is classified as:


NORAD ID: 63236
Int'l Code: 2025-052AC
Launch date: March 15, 2025
Source: United Kingdom (UK)
Launch site: AIR FORCE WESTERN TEST RANGE (AFWTR)

Uplink (MHz):
Downlink (MHz): 435.400
Beacon (MHz):
Mode: 9k6 GFSK
Call sign:
Status: Inactive

Your satellite tracking list
Your tracking list is empty




NASA's NSSDC Master Catalog

Two Line Element Set (TLE):
1 63236U 25052AC  26249.66985558  .00002667  00000-0  11754-3 0  9991
2 63236  97.3712 139.8373 0002654 204.4396 155.6715 15.22663726 82213
Source of the keplerian elements: AFSPC